Satellite: NOAA-16
Catalog number: 26536
Epoch time: 07353.50223060
Element set: 727
Inclination: 099.1408 deg
RA of node: 333.8825 deg
Eccentricity: 0.0010699
Arg of perigee: 017.3398 deg
Mean anomaly: 342.8148 deg
Mean motion: 14.12463722 rev/day
Decay rate: 2.85e-06 rev/day^2
Epoch rev: 37326
Checksum: 308
Satellite: OKEAN-0
Catalog number: 25860
Epoch time: 07353.89270682
Element set: 0242
Inclination: 097.7386 deg
RA of node: 347.5499 deg
Eccentricity: 0.0001649
Arg of perigee: 095.9233 deg
Mean anomaly: 264.2163 deg
Mean motion: 14.73492106 rev/day
Decay rate: 6.6e-07 rev/day^2
Epoch rev: 45284
Checksum: 328
Satellite: FENGYUN1
Catalog number: 25730
Epoch time: 07353.94623909
Element set: 0316
Inclination: 098.7092 deg
RA of node: 330.9596 deg
Eccentricity: 0.0020822
Arg of perigee: 319.7297 deg
Mean anomaly: 040.2331 deg
Mean motion: 14.07649569 rev/day
Decay rate: -6.0e-08 rev/day^2
Epoch rev: 44360
Checksum: 309
Satellite: RESURS
Catalog number: 25394
Epoch time: 07353.75883853
Element set: 0819
Inclination: 098.4141 deg
RA of node: 040.6956 deg
Eccentricity: 0.0002111
Arg of perigee: 029.7735 deg
Mean anomaly: 330.3564 deg
Mean motion: 14.24151132 rev/day
Decay rate: 6.0e-08 rev/day^2
Epoch rev: 49076
Checksum: 292
Satellite: NOAA-15
Catalog number: 25338
Epoch time: 07353.51377424
Element set: 280
Inclination: 098.5432 deg
RA of node: 345.0885 deg
Eccentricity: 0.0010092
Arg of perigee: 204.7119 deg
Mean anomaly: 155.3582 deg
Mean motion: 14.24677566 rev/day
Decay rate: 6.1e-07 rev/day^2
Epoch rev: 49907
Checksum: 312
Satellite: SICH-1
Catalog number: 23657
Epoch time: 07353.75379894
Element set: 0257
Inclination: 082.5282 deg
RA of node: 264.3644 deg
Eccentricity: 0.0024293
Arg of perigee: 357.6480 deg
Mean anomaly: 002.4603 deg
Mean motion: 14.81536722 rev/day
Decay rate: 2.83e-06 rev/day^2
Epoch rev: 66350
Checksum: 314
Satellite: NOAA-14
Catalog number: 23455
Epoch time: 07353.86222152
Element set: 0941
Inclination: 098.9696 deg
RA of node: 060.8354 deg
Eccentricity: 0.0008599
Arg of perigee: 296.8061 deg
Mean anomaly: 063.2206 deg
Mean motion: 14.13730913 rev/day
Decay rate: -2.17e-06 rev/day^2
Epoch rev: 66887
Checksum: 327
Satellite: OKEAN-4
Catalog number: 23317
Epoch time: 07353.78793024
Element set: 0455
Inclination: 082.5381 deg
RA of node: 123.3940 deg
Eccentricity: 0.0022423
Arg of perigee: 006.1775 deg
Mean anomaly: 353.9705 deg
Mean motion: 14.82561380 rev/day
Decay rate: 1.70e-06 rev/day^2
Epoch rev: 71155
Checksum: 287
Satellite: MET-2/21
Catalog number: 22782
Epoch time: 07353.27838737
Element set: 0015
Inclination: 082.5472 deg
RA of node: 255.0711 deg
Eccentricity: 0.0024062
Arg of perigee: 077.7717 deg
Mean anomaly: 282.6136 deg
Mean motion: 13.83622807 rev/day
Decay rate: -1.0e-08 rev/day^2
Epoch rev: 72211
Checksum: 289
Satellite: MET-3/5
Catalog number: 21655
Epoch time: 07353.91786986
Element set: 0409
Inclination: 082.5562 deg
RA of node: 231.7150 deg
Eccentricity: 0.0014399
Arg of perigee: 101.2386 deg
Mean anomaly: 259.0356 deg
Mean motion: 13.17014010 rev/day
Decay rate: 5.1e-07 rev/day^2
Epoch rev: 78585
Checksum: 304
Satellite: NOAA-12
Catalog number: 21263
Epoch time: 07353.46412980
Element set: 469
Inclination: 098.7628 deg
RA of node: 350.4834 deg
Eccentricity: 0.0011579
Arg of perigee: 291.8393 deg
Mean anomaly: 068.1581 deg
Mean motion: 14.25508267 rev/day
Decay rate: 4.7e-07 rev/day^2
Epoch rev: 86264
Checksum: 330
Satellite: NOAA-11
Catalog number: 19531
Epoch time: 07353.34280827
Element set: 964
Inclination: 098.8058 deg
RA of node: 080.1573 deg
Eccentricity: 0.0010923
Arg of perigee: 221.6657 deg
Mean anomaly: 138.3655 deg
Mean motion: 14.14858950 rev/day
Decay rate: -1.80e-06 rev/day^2
Epoch rev: 99233
Checksum: 320
Satellite: NOAA-10
Catalog number: 16969
Epoch time: 07353.64848276
Element set: 0933
Inclination: 098.7368 deg
RA of node: 010.8566 deg
Eccentricity: 0.0012296
Arg of perigee: 351.4899 deg
Mean anomaly: 008.6070 deg
Mean motion: 14.27345027 rev/day
Decay rate: 8.4e-07 rev/day^2
Epoch rev: 10568
Checksum: 335
/EX
SB KEPS @ AMSAT $ORB07354.M
Orbital Elements 07354.MISC
HR AMSAT ORBITAL ELEMENTS FOR MANNED AND MISCELLANEOUS SATELLITES
FROM WA5QGD FORT WORTH,TX December 20, 2007
Send Subscribe/unsubscribe to KEPS at
http://www.amsat.org/mailman/listinfo/keps
BID: ORB07354.M
TO ALL RADIO AMATEURS BT
Satellite: CAPE1
Catalog number: 31130
Epoch time: 07353.91308586
Element set: 0201
Inclination: 098.0629 deg
RA of node: 059.7734 deg
Eccentricity: 0.0103235
Arg of perigee: 171.5589 deg
Mean anomaly: 188.7366 deg
Mean motion: 14.51913027 rev/day
Decay rate: -2.0e-07 rev/day^2
Epoch rev: 03556
Checksum: 293
Satellite: MAST
Catalog number: 31126
Epoch time: 07353.24891175
Element set: 210
Inclination: 098.0650 deg
RA of node: 059.7087 deg
Eccentricity: 0.0095238
Arg of perigee: 172.0591 deg
Mean anomaly: 188.2177 deg
Mean motion: 14.53385260 rev/day
Decay rate: 9.4e-07 rev/day^2
Epoch rev: 3573
Checksum: 299
Satellite: FALCON
Catalog number: 30776
Epoch time: 07353.88134296
Element set: 0218
Inclination: 035.4323 deg
RA of node: 166.8733 deg
Eccentricity: 0.0001601
Arg of perigee: 291.7368 deg
Mean anomaly: 068.3177 deg
Mean motion: 15.02828622 rev/day
Decay rate: 5.20e-06 rev/day^2
Epoch rev: 04300
Checksum: 282
Satellite: FCAL
Catalog number: 29667
Epoch time: 07353.95393789
Element set: 0596
Inclination: 051.6300 deg
RA of node: 194.7200 deg
Eccentricity: 0.0009055
Arg of perigee: 001.5616 deg
Mean anomaly: 358.5400 deg
Mean motion: 15.97044468 rev/day
Decay rate: 4.0201e-04 rev/day^2
Epoch rev: 05759
Checksum: 310
Satellite: NCUBE2
Catalog number: 28897
Epoch time: 07353.68091398
Element set: 0431
Inclination: 098.1138 deg
RA of node: 246.6540 deg
Eccentricity: 0.0016351
Arg of perigee: 255.1465 deg
Mean anomaly: 104.7961 deg
Mean motion: 14.59783506 rev/day
Decay rate: 1.71e-06 rev/day^2
Epoch rev: 10643
Checksum: 315
Satellite: CO-58
Catalog number: 28895
Epoch time: 07353.42132659
Element set: 0902
Inclination: 098.1186 deg
RA of node: 246.4587 deg
Eccentricity: 0.0016835
Arg of perigee: 253.1328 deg
Mean anomaly: 106.8013 deg
Mean motion: 14.59616239 rev/day
Decay rate: 7.7e-07 rev/day^2
Epoch rev: 11411
Checksum: 320
Satellite: UWE-1
Catalog number: 28892
Epoch time: 07353.24260569
Element set: 0927
Inclination: 098.1133 deg
RA of node: 245.9993 deg
Eccentricity: 0.0016395
Arg of perigee: 253.4473 deg
Mean anomaly: 106.4917 deg
Mean motion: 14.59573534 rev/day
Decay rate: 5.8e-07 rev/day^2
Epoch rev: 11420
Checksum: 324
Satellite: OO-38
Catalog number: 26063
Epoch time: 07353.87942837
Element set: 0089
Inclination: 100.2174 deg
RA of node: 030.7346 deg
Eccentricity: 0.0036866
Arg of perigee: 357.9304 deg
Mean anomaly: 002.1717 deg
Mean motion: 14.35822919 rev/day
Decay rate: -2.1e-07 rev/day^2
Epoch rev: 41369
Checksum: 309
Satellite: ISS
Catalog number: 25544
Epoch time: 07353.90428241
Element set: 538
Inclination: 051.6401 deg
RA of node: 226.2979 deg
Eccentricity: 0.0000865
Arg of perigee: 356.5715 deg
Mean anomaly: 177.1330 deg
Mean motion: 15.77810698 rev/day
Decay rate: 2.6225e-04 rev/day^2
Epoch rev: 52007
Checksum: 301
Satellite: PO-34
Catalog number: 25520
Epoch time: 07353.95505285
Element set: 0900
Inclination: 028.4609 deg
RA of node: 305.3346 deg
Eccentricity: 0.0005625
Arg of perigee: 124.1683 deg
Mean anomaly: 235.9443 deg
Mean motion: 15.17102498 rev/day
Decay rate: 5.59e-06 rev/day^2
Epoch rev: 50576
Checksum: 303
Satellite: UARS
Catalog number: 21701
Epoch time: 07353.94692422
Element set: 0254
Inclination: 056.9745 deg
RA of node: 226.8132 deg
Eccentricity: 0.0088426
Arg of perigee: 187.4921 deg
Mean anomaly: 172.4823 deg
Mean motion: 15.49934348 rev/day
Decay rate: 4.973e-05 rev/day^2
Epoch rev: 89453
Checksum: 335
Satellite: HUBBLE
Catalog number: 20580
Epoch time: 07353.54176846
Element set: 0039
Inclination: 028.4681 deg
RA of node: 061.3786 deg
Eccentricity: 0.0003719
Arg of perigee: 257.0894 deg
Mean anomaly: 102.9280 deg
Mean motion: 15.00316506 rev/day
Decay rate: 4.28e-06 rev/day^2
Epoch rev: 76782
Checksum: 303
/EX
More information about the Keps
mailing list